User: anonymous
Location: Unspecified
(0.0000°N, 0.0000°E)
Time: 11:26:45
(UTC+02:00)
Language:

Cosmos 1782 Rocket - Orbit

View from above orbital plane
View from above orbital plane
View from above satellite
View from above satellite

Ground track
Ground track

The orbit data is extracted from the following two-line orbital elements,

1 16987U 86074B   14234.45054319  .00000234  00000-0  26106-4 0  4365
2 16987 082.5179 194.5357 0019466 056.1437 088.6128 14.82440787505874
Epoch (UTC): 22 August 2014 10:48:46
Eccentricity: 0.0019466
inclination: 82.5179°
perigee height: 608 km
apogee height: 635 km
right ascension of ascending node: 194.5357°
argument of perigee: 56.1437°
revolutions per day: 14.82440787
mean anomaly at epoch: 88.6128°
orbit number at epoch: 50587

The dashed part of the orbit path shows where the satellite is in the earth's shadow,  

DLR